Location: Ecklingerode
(51.5036°N, 10.3122°E)
Time: 07:53:43
(UTC+00:00)

Cosmos 1417 Rocket - Pass Details

Date: 29 October 2020
Orbit: 952 x 998 km, 83.0° (Epoch: 01 December)

Event Time Altitude Azimuth Distance (km) Brightness Sun altitude
Rises 17:24:29 0° 178° (S) 3,666 7.5 -14.1°
Reaches altitude 10° 17:26:59 10° 175° (S) 2,729 6.8 -14.5°
Maximum altitude 17:33:11 67° 94° (E) 1,069 4.5 -15.5°
Drops below altitude 10° 17:39:30 10° 14° (NNE) 2,774 6.7 -16.5°
Sets 17:42:03 0° 12° (NNE) 3,730 7.4 -16.9°
